{"data":{"norad_id":58391,"intl_designator":"2023-178T","name":"STARLINK-30916","alt_names":[],"object_type":"PAYLOAD","status":"ACTIVE","operator":null,"country":"US","launch_date":"2023-11-20","launch_site_code":"AFWTR","launch_vehicle":null,"mission":null,"orbit_class":"UNKNOWN","rcs_meters":null,"size_class":null,"mass_kg":null,"dimensions":null,"purposes":["comms"],"wikipedia_slug":null,"has_3d_model":false,"image_url":null,"decayed_at":null,"tle_current":{"epoch":"2026-09-19T07:35:09.722400Z","epoch_age_seconds":245984,"freshness":"STALE","line1":"1 58391U 23178T   26262.31608475 -.00001089  00000+0 -21070-4 0  9992","line2":"2 58391  53.1599 177.5462 0001463  93.6541 266.4629 15.34414165159592","mean_motion":15.34414165,"eccentricity":0.0001463,"inclination_deg":53.1599,"raan_deg":177.5462,"arg_perigee_deg":93.6541,"mean_anomaly_deg":266.4629,"bstar":-2.107e-5,"rev_number":15959,"period_min":93.846891722353,"perigee_km":461.66033039809,"apogee_km":463.66194793361,"semimajor_km":6840.7981391659,"source":"CELESTRAK","updated_at":"2026-09-21T09:00:33.868328Z"}}}